Location: Oulou
(10.7667°N, 12.5167°W)
Time: 23:39:21
(UTC+00:00)

Okean-O - Pass Details

Date: 20 September 2019
Orbit: 639 x 640 km, 98.2° (Epoch: 14 October)

Event Time Altitude Azimuth Distance (km) Brightness Sun altitude
Rises 19:11:25 0° 179° (S) 2,934 6.0 -6.7°
Reaches altitude 10° 19:13:41 10° 186° (S) 2,026 5.3 -7.2°
Maximum altitude 19:17:54 46° 259° (WSW) 861 3.9 -8.3°
Drops below altitude 10° 19:22:08 10° 332° (NNW) 2,024 5.6 -9.3°
Sets 19:24:25 0° 339° (NNW) 2,933 6.4 -9.9°
